This is the latest recevied weather packets stored in our database for station/object WB0OCV. If no packets are shown the sender has not sent any weather packets the latest 10 day(s).
| Time | Temp. | Humidity | Pressure | Rain* | Wind** | Luminosity | Snow |
|---|---|---|---|---|---|---|---|
| 1778224744 | 7.78° C | 61% | 1009.9 hPa | 0 mm | - | 0 W/m² | - |
| 1778224442 | 7.78° C | 63% | 1010.2 hPa | 0 mm | - | 0 W/m² | - |
| 1778224139 | 7.22° C | 65% | 1010 hPa | 0 mm | - | 0 W/m² | - |
| 1778223837 | 6.67° C | 67% | 1010 hPa | 0 mm | - | 0 W/m² | - |
| 1778223535 | 7.22° C | 67% | 1010 hPa | 0 mm | - | 0 W/m² | - |
| 1778223233 | 7.22° C | 65% | 1010.1 hPa | 0 mm | - | 0 W/m² | - |
| 1778222931 | 7.22° C | 66% | 1009.9 hPa | 0 mm | - | 0 W/m² | - |
| 1778222628 | 7.22° C | 66% | 1009.8 hPa | 0 mm | - | 0 W/m² | - |
| 1778222326 | 7.78° C | 66% | 1009.8 hPa | 0 mm | - | 0 W/m² | - |
| 1778222023 | 7.78° C | 64% | 1009.7 hPa | 0 mm | - | 0 W/m² | - |
| 1778221720 | 7.78° C | 65% | 1009.8 hPa | 0 mm | - | 0 W/m² | - |
| 1778221417 | 7.78° C | 65% | 1009.7 hPa | 0 mm | - | 0 W/m² | - |
| 1778221114 | 7.78° C | 64% | 1009.7 hPa | 0 mm | - | 0 W/m² | - |
| 1778220812 | 7.78° C | 65% | 1009.7 hPa | 0 mm | - | 0 W/m² | - |
| 1778220508 | 7.78° C | 64% | 1009.8 hPa | 0 mm | - | 0 W/m² | - |
| 1778220206 | 8.33° C | 65% | 1009.5 hPa | 0 mm | - | 0 W/m² | - |
| 1778219900 | 8.33° C | 62% | 1009.7 hPa | 0 mm | - | 0 W/m² | - |
| 1778219599 | 8.89° C | 62% | 1009.7 hPa | 0 mm | - | 0 W/m² | - |
| 1778219295 | 8.89° C | 62% | 1009.6 hPa | 0 mm | - | 0 W/m² | - |
| 1778218993 | 9.44° C | 60% | 1009.7 hPa | 0 mm | - | 0 W/m² | - |
| 1778218689 | 9.44° C | 59% | 1009.8 hPa | 0 mm | - | 0 W/m² | - |
| 1778218387 | 9.44° C | 59% | 1009.7 hPa | 0 mm | - | 0 W/m² | - |
| 1778218084 | 8.89° C | 58% | 1009.6 hPa | 0 mm | - | 0 W/m² | - |
| 1778217781 | 8.89° C | 64% | 1009.7 hPa | 0 mm | - | 0 W/m² | - |
| 1778217477 | 8.89° C | 63% | 1009.6 hPa | 0 mm | - | 0 W/m² | - |
* Rain latest hour (hover to see other rain measurements)
** Current wind speed in m/s (hover to see current wind gust speed)